When you browse on this site, cookies collect data to enhance your experience and personalize the content and advertising you see.
Visit our Privacy Policy to learn more. By continuing to use the site, you agree to this use of cookies and data.
  • En España
  • Lista de países
  • Para 7 días
  • Temperatura del agua
  • Mapa Satelital
  • El tiempo en el mapa
  • Informadores
  • user-avatar
    Iniciar sesión

    Tiempo cada hora Antananarivo

    Hoy, 19 Junio, Miércoles

    Tiempo Temperatura Precipitaciones Viento Presión Humedad
    00:00 +14°C° 0 mm 1 mps 659 mmHg 91%
    01:00 +14°C° 0 mm 1 mps 659 mmHg 91%
    02:00 +14°C° 0 mm 1 mps 658 mmHg 91%
    03:00 +14°C° 0 mm 1 mps 658 mmHg 93%
    04:00 +13°C° 0 mm 1 mps 658 mmHg 94%
    05:00 +13°C° 0 mm 1 mps 657 mmHg 95%
    06:00 +12°C° 0 mm 1 mps 657 mmHg 95%
    07:00 +14°C° 0 mm 1 mps 658 mmHg 89%
    08:00 +15°C° 0 mm 1 mps 658 mmHg 83%
    09:00 +16°C° 0 mm 1 mps 659 mmHg 76%
    10:00 +19°C° 0 mm 1 mps 659 mmHg 68%
    11:00 +21°C° 0 mm 1 mps 659 mmHg 61%
    12:00 +23°C° 0 mm 1 mps 659 mmHg 53%
    13:00 +23°C° 0.1 mm 1 mps 659 mmHg 53%
    14:00 +23°C° 0.1 mm 1 mps 658 mmHg 53%
    15:00 +23°C° 0.1 mm 2 mps 658 mmHg 53%
    16:00 +20°C° 0.5 mm 2 mps 657 mmHg 63%
    17:00 +18°C° 0.5 mm 2 mps 657 mmHg 73%
    18:00 +16°C° 0.5 mm 2 mps 657 mmHg 84%
    19:00 +15°C° 0.6 mm 2 mps 657 mmHg 87%
    20:00 +15°C° 0.6 mm 2 mps 657 mmHg 91%
    21:00 +14°C° 0.6 mm 2 mps 657 mmHg 94%
    22:00 +14°C° 1 mm 2 mps 657 mmHg 94%
    23:00 +14°C° 1 mm 2 mps 657 mmHg 94%

    Mañana, 20 Junio, Jueves

    Tiempo Temperatura Precipitaciones Viento Presión Humedad
    00:00 +13°C° 1 mm 3 mps 657 mmHg 94%
    01:00 +13°C° 1.2 mm 2 mps 657 mmHg 94%
    02:00 +13°C° 1.2 mm 2 mps 657 mmHg 94%
    03:00 +13°C° 1.2 mm 1 mps 657 mmHg 94%
    04:00 +13°C° 0.6 mm 1 mps 657 mmHg 94%
    05:00 +13°C° 0.6 mm 1 mps 657 mmHg 94%
    06:00 +13°C° 0.6 mm 1 mps 657 mmHg 94%
    07:00 +13°C° 0.3 mm 2 mps 658 mmHg 93%
    08:00 +12°C° 0.3 mm 3 mps 658 mmHg 91%
    09:00 +12°C° 0.3 mm 4 mps 658 mmHg 90%
    10:00 +14°C° 0 mm 4 mps 658 mmHg 85%
    11:00 +15°C° 0 mm 4 mps 658 mmHg 80%
    12:00 +16°C° 0 mm 5 mps 658 mmHg 75%
    13:00 +16°C° 0.2 mm 5 mps 658 mmHg 72%
    14:00 +16°C° 0.2 mm 5 mps 658 mmHg 70%
    15:00 +17°C° 0.2 mm 5 mps 658 mmHg 68%
    16:00 +15°C° 0 mm 5 mps 658 mmHg 73%
    17:00 +14°C° 0 mm 4 mps 658 mmHg 78%
    18:00 +12°C° 0 mm 4 mps 658 mmHg 83%
    19:00 +12°C° 0 mm 4 mps 658 mmHg 85%
    20:00 +12°C° 0 mm 4 mps 658 mmHg 88%
    21:00 +11°C° 0 mm 4 mps 659 mmHg 90%
    22:00 +11°C° 0 mm 4 mps 659 mmHg 90%
    23:00 +11°C° 0 mm 4 mps 659 mmHg 90%

    Pasado mañana, 21 Junio, Viernes

    Tiempo Temperatura Precipitaciones Viento Presión Humedad
    00:00 +11°C° 0 mm 4 mps 658 mmHg 90%
    01:00 +12°C° 0 mm 4 mps 658 mmHg 90%
    02:00 +12°C° 0 mm 4 mps 658 mmHg 90%
    03:00 +12°C° 0 mm 4 mps 658 mmHg 89%
    04:00 +12°C° 0 mm 4 mps 658 mmHg 89%
    05:00 +12°C° 0 mm 4 mps 658 mmHg 89%
    06:00 +12°C° 0 mm 5 mps 659 mmHg 88%
    07:00 +13°C° 0 mm 5 mps 659 mmHg 85%
    08:00 +13°C° 0 mm 6 mps 659 mmHg 81%
    09:00 +14°C° 0 mm 6 mps 660 mmHg 77%
    10:00 +15°C° 0 mm 6 mps 660 mmHg 73%
    11:00 +16°C° 0 mm 6 mps 660 mmHg 70%
    12:00 +17°C° 0 mm 6 mps 660 mmHg 66%
    13:00 +17°C° 0.1 mm 6 mps 659 mmHg 69%
    14:00 +16°C° 0.1 mm 6 mps 659 mmHg 73%
    15:00 +16°C° 0.1 mm 6 mps 658 mmHg 76%
    16:00 +14°C° 0.8 mm 5 mps 658 mmHg 81%
    17:00 +13°C° 0.8 mm 5 mps 658 mmHg 86%
    18:00 +12°C° 0.8 mm 4 mps 658 mmHg 91%
    19:00 +12°C° 0.5 mm 4 mps 658 mmHg 91%
    20:00 +12°C° 0.5 mm 4 mps 658 mmHg 91%
    21:00 +12°C° 0.5 mm 4 mps 659 mmHg 91%
    22:00 +12°C° 0.7 mm 4 mps 658 mmHg 92%
    23:00 +12°C° 0.7 mm 3 mps 658 mmHg 93%

    22 Junio, Sábado

    Tiempo Temperatura Precipitaciones Viento Presión Humedad
    00:00 +12°C° 0.7 mm 3 mps 658 mmHg 94%
    01:00 +13°C° 0.1 mm 3 mps 658 mmHg 94%
    02:00 +13°C° 0.1 mm 4 mps 657 mmHg 94%
    03:00 +13°C° 0.1 mm 4 mps 657 mmHg 93%
    04:00 +13°C° 0 mm 4 mps 657 mmHg 93%
    05:00 +13°C° 0 mm 4 mps 657 mmHg 93%
    06:00 +13°C° 0 mm 4 mps 657 mmHg 93%
    07:00 +13°C° 0.1 mm 5 mps 658 mmHg 91%
    08:00 +14°C° 0.1 mm 5 mps 658 mmHg 90%
    09:00 +14°C° 0.1 mm 5 mps 659 mmHg 89%
    10:00 +15°C° 0.1 mm 5 mps 658 mmHg 89%
    11:00 +15°C° 0.1 mm 4 mps 658 mmHg 88%
    12:00 +15°C° 0.1 mm 4 mps 658 mmHg 88%
    13:00 +14°C° 1.9 mm 3 mps 657 mmHg 94%
    14:00 +14°C° 1.9 mm 3 mps 657 mmHg 94%
    15:00 +14°C° 1.9 mm 3 mps 656 mmHg 95%
    16:00 +15°C° 0.5 mm 2 mps 656 mmHg 95%
    17:00 +14°C° 0.5 mm 2 mps 657 mmHg 95%
    18:00 +14°C° 0.5 mm 2 mps 657 mmHg 96%
    19:00 +14°C° 0.2 mm 2 mps 657 mmHg 96%
    20:00 +14°C° 0.2 mm 1 mps 657 mmHg 96%
    21:00 +14°C° 0.2 mm 1 mps 657 mmHg 96%
    22:00 +14°C° 1.3 mm 1 mps 657 mmHg 97%
    23:00 +14°C° 1.3 mm 1 mps 657 mmHg 97%

    23 Junio, Domingo

    Tiempo Temperatura Precipitaciones Viento Presión Humedad
    00:00 +14°C° 1.3 mm 1 mps 657 mmHg 97%
    01:00 +14°C° 0.7 mm 1 mps 656 mmHg 97%
    02:00 +14°C° 0.7 mm 1 mps 656 mmHg 97%
    03:00 +14°C° 0.7 mm 2 mps 655 mmHg 97%
    04:00 +14°C° 0 mm 1 mps 655 mmHg 96%
    05:00 +13°C° 0 mm 1 mps 655 mmHg 96%
    06:00 +13°C° 0 mm 1 mps 655 mmHg 96%
    07:00 +14°C° 0 mm 1 mps 656 mmHg 94%
    08:00 +15°C° 0 mm 1 mps 656 mmHg 92%
    09:00 +15°C° 0 mm 1 mps 657 mmHg 90%
    10:00 +18°C° 0.1 mm 1 mps 657 mmHg 85%
    11:00 +19°C° 0.1 mm 1 mps 657 mmHg 80%
    12:00 +20°C° 0.1 mm 1 mps 657 mmHg 75%
    13:00 +20°C° 0.2 mm 1 mps 656 mmHg 75%
    14:00 +20°C° 0.2 mm 1 mps 656 mmHg 75%
    15:00 +20°C° 0.2 mm 1 mps 656 mmHg 75%
    16:00 +19°C° 0 mm 1 mps 656 mmHg 80%
    17:00 +18°C° 0 mm 1 mps 656 mmHg 85%
    18:00 +15°C° 0 mm 1 mps 655 mmHg 91%
    19:00 +15°C° 0 mm 1 mps 656 mmHg 92%
    20:00 +15°C° 0 mm 1 mps 656 mmHg 94%
    21:00 +14°C° 0 mm 1 mps 656 mmHg 95%
    22:00 +14°C° 0 mm 1 mps 656 mmHg 96%
    23:00 +14°C° 0 mm 1 mps 656 mmHg 96%

    24 Junio, Lunes

    Tiempo Temperatura Precipitaciones Viento Presión Humedad
    00:00 +14°C° 0 mm 1 mps 656 mmHg 97%
    01:00 +13°C° 0 mm 0 mps 655 mmHg 97%
    02:00 +13°C° 0 mm 0 mps 655 mmHg 96%
    03:00 +13°C° 0 mm 0 mps 655 mmHg 96%
    04:00 +12°C° 0 mm 0 mps 655 mmHg 96%
    05:00 +12°C° 0 mm 0 mps 655 mmHg 96%
    06:00 +12°C° 0 mm 0 mps 655 mmHg 96%
    07:00 +13°C° 0 mm 0 mps 656 mmHg 92%
    08:00 +15°C° 0 mm 0 mps 656 mmHg 87%
    09:00 +16°C° 0 mm 0 mps 657 mmHg 83%
    10:00 +18°C° 0 mm 0 mps 657 mmHg 74%
    11:00 +22°C° 0 mm 1 mps 657 mmHg 65%
    12:00 +24°C° 0 mm 1 mps 657 mmHg 56%
    13:00 +24°C° 0 mm 1 mps 657 mmHg 55%
    14:00 +23°C° 0 mm 1 mps 656 mmHg 54%
    15:00 +23°C° 0 mm 2 mps 656 mmHg 53%
    16:00 +20°C° 0 mm 2 mps 656 mmHg 60%
    17:00 +20°C° 0 mm 1 mps 656 mmHg 68%
    18:00 +18°C° 0 mm 1 mps 655 mmHg 75%
    19:00 +16°C° 0 mm 1 mps 655 mmHg 78%
    20:00 +16°C° 0 mm 1 mps 656 mmHg 81%
    21:00 +15°C° 0 mm 1 mps 656 mmHg 85%
    22:00 +14°C° 0 mm 0 mps 656 mmHg 87%
    23:00 +13°C° 0 mm 0 mps 655 mmHg 89%
    Mostrar más